Regional Weather Roundup
Issued by NWS

Home | Current Version | Previous Version | Text Only | Print | Product List | Glossary On
Versions: 1 2 3 4 5 6 7 8 9 10 11 12 13 14 15 16 17 18 19 20 21 22 23 24 25 26 27 28 29 30 31 32 33 34 35 36 37 38 39 40 41 42 43 44 45 46 47 48 49 50
000
ASCA44 KEWX 211820
RWRMX

LATIN AMERICA AND CARIBBEAN REGIONAL WEATHER ROUNDUP
NATIONAL WEATHER SERVICE AUSTIN/SAN ANTONIO TX
1200 PM CST SAT JAN 21 2017

NOTE: "FAIR" INDICATED FEW OR NO CLOUDS BELOW 12,000 FEET WITH NO
SIGNIFICANT WEATHER AND/OR OBSTRUCTIONS TO VISIBILITY.

BAJA CALIFORNIA

CITY           SKY/WX    TMP DP  RH WIND       PRES   REMARKS
LORETO         PTSUNNY   68  57  68 W23       29.99R
LA PAZ         PTSUNNY   70  54  56 CALM      30.11R
MEXICALI       SUNNY     59  37  44 W16       29.86R
S.J. DEL CABO  MOSUNNY   72  48  43 NE5       30.09S
TIJUANA        PTSUNNY   55  43  62 W7        29.98R

NORTHWESTERN MEXICO

CITY           SKY/WX    TMP DP  RH WIND       PRES   REMARKS
CULIACAN       SUNNY     70  54  56 CALM      30.10R
DURANGO        SUNNY     66  18  15 SW23      30.12S
GUAYMAS        MOSUNNY   70  54  56 W16       29.93R
HERMOSILLO     CLOUDY    64  54  68 SW10      29.97R
CD. JUAREZ     CLOUDY    46  43  87 W14       29.64R WCI  40
LOS MOCHIS     MOSUNNY   70  50  49 SW13      30.08S
OBREGON        PTSUNNY   66  55  68 S13       29.98R

NORTHEASTERN MEXICO

CITY           SKY/WX    TMP DP  RH WIND       PRES   REMARKS
CHIHUAHUA      PTSUNNY   55  32  41 S29G41    29.75F
MATAMOROS      SUNNY     86  55  35 SW7       29.62F
MONCLOVA       SUNNY     82  19   9 W35       29.68F
MONTERREY      SUNNY     86  23  10 SW3       29.64F
NUEVO LAREDO   SUNNY     79  50  36 SE6       29.58F
PIEDRAS NEGRAS SUNNY     81  43  26 S9        29.55F
REYNOSA        SUNNY     81  52  36 S6        29.62F
SALTILLO       SUNNY     77  39  25 S15G29    29.88F
TORREON        MOSUNNY   79  25  13 S14G26    29.81F
CD. VICTORIA   SUNNY     84  48  28 SE6       29.69

WESTERN MEXICO

CITY           SKY/WX    TMP DP  RH WIND       PRES   REMARKS
AGUASCALIENTES SUNNY     64  21  19 SW15      30.24F
COLIMA         MOSUNNY   75  59  57 S9        30.16F
DEL BAJIO      SUNNY     66  37  34 SW7       30.29F
GUADALAJARA    SUNNY     70  19  14 W14       30.22S
MANZANILLO     SUNNY     82  66  57 W9        30.00S
MAZATLAN       SUNNY     73  54  49 S3        30.09
P. VALLARTA    SUNNY     77  63  61 SW5       30.06F
URUAPAN        SUNNY     68  50  52 CALM      30.23F
ZACATECAS        N/A    N/A N/A N/A MISG        N/A

CENTRAL MEXICO

CITY           SKY/WX    TMP DP  RH WIND       PRES   REMARKS
CUERNAVACA     SUNNY     75  41  29 NW3       30.15F
MEXICO CITY    SUNNY     70  23  17 S5        30.27F
MORELIA        SUNNY     70  39  32 S8        30.23F
POZA RICA      SUNNY     90  64  43 CALM      29.76F HX  91
PUEBLA         SUNNY     63  37  39 S3        30.30F
QUERETARO      SUNNY     68  34  28 NW14      30.26F
S. LUIS POTOSI SUNNY     70  16  12 SW12G23   30.12F
TAMPICO        SUNNY     88  57  35 SW7       29.70F
TOLUCA         SUNNY     61  21  21 NW7       30.36F

SOUTHERN MEXICO

CITY           SKY/WX    TMP DP  RH WIND       PRES   REMARKS
ACAPULCO       MOSUNNY   82  70  65 W8        29.97F
B. DE HUATULCO SUNNY     88  72  58 W29       29.95F HX  94
OAXACA         SUNNY     73  39  29 SW7       30.18F
P. ESCONDIDO   SUNNY     84  68  58 SW16      30.04F
VERACRUZ       SUNNY     88  68  51 SW9       29.75F HX  91
ZIHUATANEJO    MOSUNNY   86  72  62 SW8       30.00S HX  92

YUCATAN PENINSULA

CITY           SKY/WX    TMP DP  RH WIND       PRES   REMARKS
CAMPECHE       SUNNY     90  70  51 SE12G23   29.78F HX  95
CANCUN         PTSUNNY   84  72  65 SE15      29.88F
CHETUMAL       SUNNY     84  75  74 SE12      29.84F HX  92
CD. DEL CARMEN SUNNY     82  72  69 SE6       29.80F
COZUMEL        MOSUNNY   84  73  70 S9        29.87F HX  91
MERIDA         SUNNY     91  70  49 SE13      29.80F HX  97
MINATITLAN     SUNNY     90  68  48 S21       29.77F HX  93
TAPACHULA      PTSUNNY   86  68  54 SW7       29.96F
TUX. GUTIERREZ MOSUNNY   82  55  39 SW7       29.98F
VILLAHERMOSA   SUNNY     90  66  45 S6        29.81F HX  92

CENTRAL AMERICA

CITY           SKY/WX    TMP DP  RH WIND       PRES   REMARKS
BELIZE CITY    MOSUNNY   90  73  58 S12       29.83F HX  98
MANAGUA        PTCLDY    88  68  51 E12       29.94F HX  91

CARIBBEAN

CITY           SKY/WX    TMP DP  RH WIND       PRES   REMARKS
ARUBA          MOSUNNY   84  72  65 E12       29.94F
CURACAO        MOSUNNY   82  73  74 NE10      29.97S
KINGSTON       MOSUNNY   84  70  61 S9        29.97F
NASSAU         MOSUNNY   81  66  61 CALM      29.99F
SAN JUAN       MOSUNNY   81  66  61 N8        29.98F
SANTO DOMINGO  MOSUNNY   82  70  65 SW5       29.97F
ST. CROIX      MOSUNNY   81  64  57 SE8       29.98F
ST. KITTS      MOSUNNY   81  63  54 E7        29.94F
ST. MAARTEN    MOSUNNY   81  66  61 W5        29.94F
ST. THOMAS     MOSUNNY   82  66  57 NW12      29.96

$$




USA.gov is the U.S. government's official web portal to all federal, state and local government web resources and services.